Skip Page Navigation
NASA JPL Caltech
NASA Logo - Jet Propulsion Laboratory + View the NASA Portal
+ Center for Near-Earth Object Studies
JPL Home Earth Solar System Stars & Galaxies Technology
JPL Solar System Dynamics
BODIES ORBITS EPHEMERIDES TOOLS PHYSICAL DATA DISCOVERY FAQ SITE MAP
JPL Small-Body Database Browser
Search: [ help ]  
332645 (2008 UY126)
Classification: Main-belt Asteroid          SPK-ID: 2332645
Ephemeris | Orbit Diagram | Orbital Elements | Mission Design | Physical Parameters | Discovery Circumstances | Close-Approach Data ]

[ show orbit diagram ]
Orbital Elements at Epoch 2459000.5 (2020-May-31.0) TDB
Reference: JPL 8 (heliocentric ecliptic J2000)
 Element Value Uncertainty (1-sigma)   Units 
e .1963213413053197 1.0206e-07  
a 3.137791228837297 4.1625e-08 au
q 2.521775846055891 3.0301e-07 au
i 2.041800509767306 6.8422e-06 deg
node 121.7711140703071 0.00033067 deg
peri 221.6101026803636 0.00033233 deg
M 75.82588828197902 2.9988e-05 deg
tp 2458572.888378539089
(2019-Mar-30.38837854)
0.00016688 TDB
period 2030.179760683579
5.56
4.0398e-05
1.106e-07
d
yr
n .177324199054563 3.5285e-09 deg/d
Q 3.753806611618703 4.9797e-08 au
  Orbit Determination Parameters
   # obs. used (total)      101  
   data-arc span      6743 days (18.46 yr)  
   first obs. used      2001-05-23  
   last obs. used      2019-11-08  
   planetary ephem.      DE431  
   SB-pert. ephem.      SB431-N16  
   condition code      0  
   norm. resid. RMS      .63189  
   source      ORB  
   producer      Otto Matic  
   solution date      2019-Dec-04 22:30:42  

Additional Information
 Earth MOID = 1.51445 au 
 Jupiter MOID = 1.65856 au 
 T_jup = 3.180 
[ show covariance matrix ]

Ephemeris | Orbit Diagram | Orbital Elements | Mission Design | Physical Parameters | Discovery Circumstances | Close-Approach Data ]

Physical Parameter Table
Parameter Symbol Value Units Sigma Reference Notes
absolute magnitude H 16.5   n/a MPO503366  

332645 (2008 UY126)          Discovered 2008-Oct-22 by Spacewatch at Kitt Peak
Reference: 20120703/Numbers.arcLast Updated: 2012-07-09

[ show close-approach data ]
Alternate Designations
 2008 UY126 = 2002 RL148 
Ephemeris | Orbit Diagram | Orbital Elements | Mission Design | Physical Parameters | Discovery Circumstances | Close-Approach Data ]
ABOUT SSD CREDITS/AWARDS PRIVACY/COPYRIGHT GLOSSARY LINKS
FirstGov 2020-Sep-30 00:32 UT
(server date/time)  
NASA Home Page
Site Manager:   Ryan S. Park
Webmaster  Alan B. Chamberlin